Terug naar catalogus

STARLINK-30294

ActiefCommunicatieVLEO
NORAD 57651·PAYLOAD·🇺🇸 United States

Gelanceerd Aug 17, 2023 vanaf Cape Canaveral Space Force Station

Loading…

Volgende Passages (komende 24 uur)

TLE

VersSource: CelesTrak SupGP

Epoch: Sep 15, 2026, 02:00 UTC

1 57651C 23122V   26258.08381944  .00012176  00000+0  44087-3 0  2584
2 57651  43.0028  91.5945 0002239 270.0779 165.9647 15.27582150    19

Volg STARLINK-30294 in realtime met AllMySat

Download on the App Store